Regional Weather Roundup
Issued by NWS Sterling, VA

Home | Current Version | Previous Version | Text Only | Print | Product List | Glossary Off
Versions: 1 2 3 4 5 6 7 8 9 10 11 12 13 14 15 16 17 18 19 20 21 22 23 24 25 26 27 28 29 30 31 32 33 34 35 36 37 38 39 40 41 42 43 44 45 46 47 48 49 50

000
ASUS41 KLWX 261410
RWRLWX

REGIONAL WEATHER ROUNDUP
NATIONAL WEATHER SERVICE BALTIMORE MD/WASHINGTON DC
1000 AM EDT THU MAR 26 2015

Note: "FAIR" indicates few or no clouds below 12,000 feet
with no significant weather and/or obstructions to visibility.
 TC=TEMPERATURE CELSIUS

 * =Non NWS site. Station does not report precipitation (e.g. rain,
    snow, etc.), thunder, or fog.

DCZ001-MDZ009-015-VAZ040>042-051-053>054-261500-
WASHINGTON METRO

CITY           SKY/WX    TMP DP  RH WIND       PRES   REMARKS
WASHINGTON NAT CLOUDY    54  49  83 S6        29.93F
DULLES         CLOUDY    54  50  87 S8        29.90F
ANDREWS AFB      N/A     55  55  99 S9        29.90F
FT BELVOIR     CLOUDY    52  48  87 CALM      29.90F
QUANTICO       LGT RAIN  50  46  86 CALM      29.92F FOG
COLLEGE PARK*  CLOUDY    54  50  87 CALM      29.92F
LEESBURG*      RAIN      54  50  87 CALM      29.90F
MANASSAS*      CLOUDY    54  50  87 S6        29.91F
GAITHERSBURG*  CLOUDY    55  48  76 S5        29.94F

$$

MDZ006>007-011-014-261500-
BALTIMORE METRO

CITY           SKY/WX    TMP DP  RH WIND       PRES   REMARKS
BWI AIRPORT    LGT RAIN  52  46  82 CALM      29.90F FOG
MD SCIENCE CTR   N/A     50  41  71 MISG      29.94F
MARTIN STATE   CLOUDY    52  45  76 S5        29.93F FOG
ANNAPOLIS      LGT RAIN  44  41  89 SE9       29.91F FOG

$$

MDZ012-015-019>023-261500-
MARYLAND EASTERN SHORE

CITY           SKY/WX    TMP DP  RH WIND       PRES   REMARKS
OCEAN CITY     CLOUDY    49  47  93 S8        29.98F FOG
SALISBURY      CLOUDY   N/A N/A N/A S10       29.96F
BAY BRIDGE AP* TSTM      50  46  87 SE5       29.92F
CAMBRIDGE*     PTSUNNY   57  55  94 S13       29.91F
EASTON*        TSTM      55  55 100 S5G18     29.98F

$$

MDZ017>025-261500-
SOUTHERN MARYLAND

CITY           SKY/WX    TMP DP  RH WIND       PRES   REMARKS
PATUXENT RIVER LGT RAIN  50  48  93 SE9       29.92F FOG
ST INIGOES     CLOUDY    57  54  89 SE6       29.92F
LEONARDTOWN*   CLOUDY    55  54  94 S6        29.93F

$$

MDZ003>005-261500-
NORTH CENTRAL MARYLAND

CITY           SKY/WX    TMP DP  RH WIND       PRES   REMARKS
FREDERICK*     LGT RAIN  48  37  66 CALM      29.93F
HAGERSTOWN APT CLOUDY    44  36  73 N8        29.86F HAZE
WESTMINSTER*   PTSUNNY   54  48  82 S9G17     29.88F

$$

MDZ501>502-261500-
WESTERN MARYLAND

CITY           SKY/WX    TMP DP  RH WIND       PRES   REMARKS
OAKLAND*       CLOUDY    57  54  88 S10G22    29.82F
CUMBERLAND*    SUNNY     48  41  76 CALM      29.88F

$$

VAZ025>031-261500-
SHENANDOAH VALLEY

CITY           SKY/WX    TMP DP  RH WIND       PRES   REMARKS
WINCHESTER*    CLOUDY    54  46  76 S7        29.85F
FRONT ROYAL*   CLOUDY    59  52  77 S3        29.85F
LURAY*         CLOUDY    61  54  77 CALM      29.86F
NEW MARKET*    PTSUNNY   59  53  78 W9        29.86F
STAUNTON*      PTSUNNY   60  55  81 S7        29.90F
WAYNESBORO*    PTSUNNY   61  56  84 SW9       29.89F

$$

WVZ021-048>050-054>055-261500-
EASTERN WEST VIRGINIA PANHANDLE

CITY           SKY/WX    TMP DP  RH WIND       PRES   REMARKS
MARTINSBURG    CLOUDY    45  37  73 CALM      29.87F
PETERSBURG*    MOSUNNY   65  51  58 S15G21    29.82F

$$

VAZ036>039-050-261500-
CENTRAL FOOTHILLS

CITY           SKY/WX    TMP DP  RH WIND       PRES   REMARKS
CHARLOTTESVILL CLOUDY    51  50  96 CALM      29.90F FOG
CULPEPER*      DRIZZLE   54  52  94 S3        29.90F
ORANGE*        DRIZZLE   54  52  94 S5        29.92F
GORDONSVILLE*  CLOUDY    50  49  97 SW3       29.91F FOG
WARRENTON*     HVY RAIN  55  55 100 S3        29.90F

$$

VAZ055>057-261500-
NORTH AND CENTRAL PIEDMONT

CITY           SKY/WX    TMP DP  RH WIND       PRES   REMARKS
FREDERICKSBRG* LGT RAIN  51  51  99 SE5       29.90F
STAFFORD*      HVY RAIN  51  32  48 CALM      29.95F

$$

NCZ024-NYZ072-PAZ021-071-VAZ022-071-261500-
OTHER REGIONAL OBSERVATIONS

CITY           SKY/WX    TMP DP  RH WIND       PRES   REMARKS
NEW YORK CITY  LGT RAIN  47  41  80 CALM      29.97F
PHILADELPHIA   CLOUDY    49  44  83 CALM      29.93F
PITTSBURGH     CLOUDY    45  44  97 N12       29.78F FOG
ROANOKE        CLOUDY    55  46  71 N3        29.95F
RICHMOND       CLOUDY    66  61  84 S21G26    29.92F
RALEIGH        CLOUDY    66  62  87 SW12      29.96S

$$

ANZ530>537-261500-
MARINE OBSERVATIONS

STATION/POSITION TIME  TEMP    WIND        PRES
                       AIR SEA DIR/SP/G
                 (UTC) (F)     (DEG/KT/KT) (MB)
THOMAS PT LIGHT  1400                        N/A
BALT KEY BRIDGE  1300   47     130/  4/  6 1013.6F
COVE POINT       1300   43     190/  9/ 10 1014.4F
LEWISETTA        1300   48 44              1014.5F
SOLOMONS ISLAND  1300      41                N/A
PINEY POINT      1312          140/  5/  5   N/A

$$



USA.gov is the U.S. government's official web portal to all federal, state and local government web resources and services.